When you browse on this site, cookies collect data to enhance your experience and personalize the content and advertising you see.
Visit our Privacy Policy to learn more. By continuing to use the site, you agree to this use of cookies and data.
  • în România
  • Lista ţărilor
  • Pe 7 zile
  • Temperatura apei
  • Hartă satelitară
  • Meteo pe hartă
  • Widget-uri
  • user-avatar
    Intrare

    Meteo pe oră la Townsville

    Astăzi, 20 Iunie, Joi

    Timp Temperatura Precipitaţii Vânt Presiune Umiditate
    00:00 +15°C° 0 mm 2 m/s 756 mmHg 73%
    01:00 +14°C° 0 mm 3 m/s 756 mmHg 74%
    02:00 +15°C° 0 mm 2 m/s 756 mmHg 75%
    03:00 +14°C° 0 mm 2 m/s 756 mmHg 76%
    04:00 +14°C° 0 mm 2 m/s 756 mmHg 79%
    05:00 +14°C° 0 mm 2 m/s 756 mmHg 78%
    06:00 +14°C° 0 mm 2 m/s 756 mmHg 78%
    07:00 +14°C° 0 mm 2 m/s 757 mmHg 77%
    08:00 +16°C° 0 mm 2 m/s 757 mmHg 67%
    09:00 +18°C° 0 mm 2 m/s 757 mmHg 57%
    10:00 +21°C° 0 mm 2 m/s 757 mmHg 47%
    11:00 +23°C° 0 mm 2 m/s 757 mmHg 44%
    12:00 +24°C° 0 mm 2 m/s 756 mmHg 40%
    13:00 +25°C° 0 mm 3 m/s 756 mmHg 37%
    14:00 +25°C° 0 mm 3 m/s 755 mmHg 39%
    15:00 +24°C° 0 mm 3 m/s 755 mmHg 42%
    16:00 +24°C° 0 mm 3 m/s 755 mmHg 42%
    17:00 +21°C° 0 mm 2 m/s 756 mmHg 51%
    18:00 +19°C° 0 mm 2 m/s 756 mmHg 59%
    19:00 +18°C° 0 mm 1 m/s 756 mmHg 67%
    20:00 +18°C° 0 mm 1 m/s 757 mmHg 67%
    21:00 +16°C° 0 mm 2 m/s 757 mmHg 67%
    22:00 +16°C° 0 mm 2 m/s 757 mmHg 67%
    23:00 +15°C° 0 mm 2 m/s 757 mmHg 65%

    Mâine, 21 Iunie, Vineri

    Timp Temperatura Precipitaţii Vânt Presiune Umiditate
    00:00 +15°C° 0 mm 2 m/s 757 mmHg 63%
    01:00 +15°C° 0 mm 2 m/s 757 mmHg 61%
    02:00 +15°C° 0 mm 2 m/s 757 mmHg 62%
    03:00 +14°C° 0 mm 2 m/s 756 mmHg 63%
    04:00 +14°C° 0 mm 2 m/s 756 mmHg 65%
    05:00 +14°C° 0 mm 2 m/s 756 mmHg 65%
    06:00 +14°C° 0 mm 2 m/s 756 mmHg 65%
    07:00 +12°C° 0 mm 3 m/s 756 mmHg 65%
    08:00 +16°C° 0 mm 3 m/s 757 mmHg 58%
    09:00 +18°C° 0 mm 2 m/s 757 mmHg 52%
    10:00 +21°C° 0 mm 2 m/s 757 mmHg 45%
    11:00 +23°C° 0 mm 2 m/s 757 mmHg 41%
    12:00 +24°C° 0 mm 2 m/s 756 mmHg 38%
    13:00 +25°C° 0 mm 2 m/s 755 mmHg 35%
    14:00 +25°C° 0 mm 3 m/s 755 mmHg 36%
    15:00 +25°C° 0 mm 3 m/s 755 mmHg 36%
    16:00 +25°C° 0 mm 3 m/s 755 mmHg 37%
    17:00 +22°C° 0 mm 3 m/s 755 mmHg 42%
    18:00 +20°C° 0 mm 3 m/s 756 mmHg 46%
    19:00 +18°C° 0 mm 4 m/s 756 mmHg 51%
    20:00 +17°C° 0 mm 4 m/s 756 mmHg 52%
    21:00 +15°C° 0 mm 4 m/s 757 mmHg 53%
    22:00 +16°C° 0 mm 3 m/s 757 mmHg 55%
    23:00 +14°C° 0 mm 3 m/s 757 mmHg 56%

    Poimâine, 22 Iunie, Sâmbătă

    Timp Temperatura Precipitaţii Vânt Presiune Umiditate
    00:00 +14°C° 0 mm 3 m/s 757 mmHg 57%
    01:00 +13°C° 0 mm 3 m/s 756 mmHg 58%
    02:00 +13°C° 0 mm 3 m/s 756 mmHg 59%
    03:00 +12°C° 0 mm 3 m/s 756 mmHg 59%
    04:00 +12°C° 0 mm 3 m/s 756 mmHg 60%
    05:00 +12°C° 0 mm 3 m/s 756 mmHg 60%
    06:00 +11°C° 0 mm 3 m/s 756 mmHg 61%
    07:00 +11°C° 0 mm 3 m/s 757 mmHg 61%
    08:00 +13°C° 0 mm 3 m/s 757 mmHg 53%
    09:00 +16°C° 0 mm 3 m/s 757 mmHg 44%
    10:00 +19°C° 0 mm 3 m/s 757 mmHg 36%
    11:00 +20°C° 0 mm 3 m/s 756 mmHg 33%
    12:00 +21°C° 0 mm 3 m/s 756 mmHg 30%
    13:00 +23°C° 0 mm 2 m/s 755 mmHg 27%
    14:00 +23°C° 0 mm 2 m/s 755 mmHg 30%
    15:00 +22°C° 0 mm 3 m/s 755 mmHg 33%
    16:00 +22°C° 0 mm 3 m/s 755 mmHg 35%
    17:00 +20°C° 0 mm 3 m/s 755 mmHg 41%
    18:00 +18°C° 0 mm 2 m/s 755 mmHg 46%
    19:00 +16°C° 0 mm 2 m/s 756 mmHg 52%
    20:00 +15°C° 0 mm 2 m/s 756 mmHg 50%
    21:00 +14°C° 0 mm 2 m/s 756 mmHg 47%
    22:00 +13°C° 0 mm 3 m/s 757 mmHg 45%
    23:00 +12°C° 0 mm 3 m/s 756 mmHg 45%

    23 Iunie, Duminică

    Timp Temperatura Precipitaţii Vânt Presiune Umiditate
    00:00 +12°C° 0 mm 3 m/s 756 mmHg 45%
    01:00 +13°C° 0 mm 2 m/s 756 mmHg 45%
    02:00 +12°C° 0 mm 3 m/s 756 mmHg 46%
    03:00 +12°C° 0 mm 3 m/s 756 mmHg 47%
    04:00 +11°C° 0 mm 3 m/s 755 mmHg 48%
    05:00 +11°C° 0 mm 3 m/s 756 mmHg 48%
    06:00 +11°C° 0 mm 3 m/s 756 mmHg 48%
    07:00 +11°C° 0 mm 3 m/s 756 mmHg 49%
    08:00 +13°C° 0 mm 3 m/s 756 mmHg 45%
    09:00 +17°C° 0 mm 3 m/s 756 mmHg 41%
    10:00 +20°C° 0 mm 3 m/s 756 mmHg 37%
    11:00 +21°C° 0 mm 2 m/s 756 mmHg 40%
    12:00 +23°C° 0 mm 2 m/s 755 mmHg 43%
    13:00 +25°C° 0 mm 2 m/s 754 mmHg 46%
    14:00 +25°C° 0 mm 2 m/s 754 mmHg 48%
    15:00 +25°C° 0 mm 2 m/s 754 mmHg 51%
    16:00 +25°C° 0 mm 2 m/s 754 mmHg 53%
    17:00 +23°C° 0 mm 2 m/s 754 mmHg 61%
    18:00 +20°C° 0 mm 2 m/s 755 mmHg 69%
    19:00 +19°C° 0 mm 2 m/s 755 mmHg 76%
    20:00 +18°C° 0 mm 2 m/s 756 mmHg 77%
    21:00 +18°C° 0 mm 2 m/s 756 mmHg 78%
    22:00 +18°C° 0 mm 2 m/s 756 mmHg 78%
    23:00 +17°C° 0 mm 2 m/s 756 mmHg 80%

    24 Iunie, Luni

    Timp Temperatura Precipitaţii Vânt Presiune Umiditate
    00:00 +17°C° 0 mm 2 m/s 756 mmHg 81%
    01:00 +16°C° 0 mm 3 m/s 755 mmHg 83%
    02:00 +16°C° 0 mm 3 m/s 755 mmHg 84%
    03:00 +16°C° 0 mm 3 m/s 755 mmHg 86%
    04:00 +14°C° 0 mm 3 m/s 755 mmHg 88%
    05:00 +14°C° 0 mm 3 m/s 756 mmHg 89%
    06:00 +14°C° 0 mm 3 m/s 756 mmHg 89%
    07:00 +14°C° 0 mm 3 m/s 757 mmHg 90%
    08:00 +17°C° 0 mm 3 m/s 757 mmHg 81%
    09:00 +19°C° 0 mm 3 m/s 757 mmHg 73%
    10:00 +21°C° 0 mm 3 m/s 758 mmHg 64%
    11:00 +22°C° 0 mm 3 m/s 757 mmHg 61%
    12:00 +24°C° 0 mm 3 m/s 757 mmHg 57%
    13:00 +25°C° 0 mm 3 m/s 756 mmHg 53%
    14:00 +25°C° 0 mm 3 m/s 756 mmHg 55%
    15:00 +24°C° 0 mm 3 m/s 756 mmHg 57%
    16:00 +24°C° 0 mm 3 m/s 756 mmHg 59%
    17:00 +22°C° 0.1 mm 3 m/s 756 mmHg 65%
    18:00 +21°C° 0.1 mm 4 m/s 757 mmHg 71%
    19:00 +20°C° 0.1 mm 4 m/s 757 mmHg 77%
    20:00 +20°C° 0.1 mm 4 m/s 758 mmHg 75%
    21:00 +19°C° 0.1 mm 5 m/s 758 mmHg 73%
    22:00 +19°C° 0.1 mm 5 m/s 758 mmHg 71%
    23:00 +17°C° 0 mm 5 m/s 758 mmHg 69%

    25 Iunie, Marţi

    Timp Temperatura Precipitaţii Vânt Presiune Umiditate
    00:00 +16°C° 0 mm 5 m/s 758 mmHg 68%
    01:00 +15°C° 0 mm 5 m/s 758 mmHg 66%
    02:00 +14°C° 0 mm 4 m/s 758 mmHg 67%
    03:00 +14°C° 0 mm 4 m/s 758 mmHg 67%
    04:00 +13°C° 0 mm 4 m/s 757 mmHg 67%
    05:00 +13°C° 0 mm 4 m/s 758 mmHg 68%
    06:00 +13°C° 0 mm 4 m/s 758 mmHg 68%
    07:00 +12°C° 0 mm 4 m/s 759 mmHg 68%
    08:00 +16°C° 0 mm 3 m/s 759 mmHg 61%
    09:00 +18°C° 0 mm 3 m/s 759 mmHg 54%
    10:00 +20°C° 0 mm 3 m/s 759 mmHg 47%
    11:00 +22°C° 0 mm 3 m/s 758 mmHg 45%
    12:00 +24°C° 0 mm 3 m/s 758 mmHg 42%
    13:00 +25°C° 0 mm 3 m/s 757 mmHg 39%
    14:00 +25°C° 0 mm 3 m/s 757 mmHg 42%
    15:00 +24°C° 0 mm 3 m/s 757 mmHg 45%
    16:00 +24°C° 0 mm 3 m/s 756 mmHg 47%
    17:00 +21°C° 0 mm 3 m/s 757 mmHg 58%
    18:00 +20°C° 0 mm 3 m/s 757 mmHg 69%
    19:00 +18°C° 0 mm 3 m/s 758 mmHg 80%
    20:00 +17°C° 0 mm 3 m/s 758 mmHg 82%
    21:00 +17°C° 0 mm 3 m/s 758 mmHg 84%
    22:00 +17°C° 0 mm 4 m/s 758 mmHg 86%
    23:00 +15°C° 0 mm 4 m/s 758 mmHg 86%
    Arată mai mult